STARLINK-34327, 64208

Orbit data source: Space-Track

STARLINK-34327, 64208 is a payload satellite owned by SpaceX/Seattle (US) in LEO that was launched on Sat, 31 May 2025 UTC via an FALCON 9 launch vehicle from the Air Force Western Test Range (AFWTR). Payload-class satellites include a variety of spacecraft equipped with specific instruments for various scientific and technological missions. These include communications satellites like Starlink; space stations such as the ISS; scientific satellites like the Hubble; Earth observation satellites from companies like Planet Labs, Umbra, and HawkEye 360; GPS; miniature CubeSats for education and research; and military/defense satellites.

Loading next visibility...
Identifier
64208, 2025-117F
Orbit
LEO
Last TLE update
9 hours ago
Origin
Manufacturer
SpaceX/Seattle
Mission
Operational Commercial Communications
Bus & Motor
STARLINK V2MO, Unknown motor
Mass
575 kg wet, ~530 kg dry
Launch date (UTC)
2025-05-31 (2 months ago)
Launch vehicle
FALCON 9
Launch site
Air Force Western Test Range (AFWTR)
Object type
Payload
Rocket body
Debris
Shape & HBR
Box + 1 Pan, 14.5 m
Radar Cross Section
41.120 m², Large (>1 m²)

Expand to show TLE details & history

TLE from 9 hours ago
0 STARLINK-34327
1 64208U 25117F   25199.31723932  .00041306  00000-0  10371-2 0  9990
2 64208  53.1602  50.9886 0001076  88.2812 271.8316 15.39618048  7569
Epoch: 2025-07-18T07:36Z
TLE epoch observation values (Epoch: 2025-07-18T07:36:49.477Z)
Latitude
-0.00002°
Longitude
0.412°
Altitude
448.118 km
Speed
7.645 km/s
True Right ascension
03h 23m 57s
True Declination
0° 00' 00"
Sunlit
Object was in daylight at epoch
Visualization orbit readout
Latitude
-39.28265°
Longitude
-38.92731°
Altitude
460.588 km
Speed
7.636 km/s
Apparent Right ascension
21h 21m 15s
Apparent Declination
-54° 42' 01"
Sunlit
Object is in full shadow
Visualization observer readout
Local Sidereal Time
05:30:40
Azimuth
228.787° WSW
Elevation
-49.54°
Doppler factor
1
Orbital elements
Apogee altitude
448.23 km
Perigee altitude
446.761 km
Semi-major axis
6,825.632 km
Eccentricity
0.00011
Inclination
53.1602°
RAAN
50.9886°
Arg. of periapsis
88.2812°
True anomaly
271.81928°
Mean anomaly
271.8316°
Eccentric anomaly
271.82544°
Mean motion
3.84883 °/min
Orbital period
93.53 mins
BSTAR
0.0010371
Loading maneuver chart data...
Loading SW <> Apogee altitude chart data...
Loading historical data...
Loading historical data...
Loading historical data...
Loading historical data...
Loading historical data...
Loading historical data...
Loading historical data...
|